Time,TemperatureF,DewpointF,PressureIn,WindDirection,WindDirectionDegrees,WindSpeedMPH,WindSpeedGustMPH,Humidity,HourlyPrecipIn,Conditions,Clouds,dailyrainin,SoftwareType,DateUTC
2013-02-03 00:02:00,31.0,-99.9,-100.00,North,0,0.0,0.0,-999,0.00,,,-99.99,,2013-02-03 07:02:00,
2013-02-03 00:11:00,31.0,-99.9,-100.00,North,0,0.0,0.0,-999,0.00,,,-99.99,,2013-02-03 07:11:00,
2013-02-03 00:22:00,32.0,-99.9,-100.00,North,0,0.0,0.0,-999,0.00,,,-99.99,,2013-02-03 07:22:00,
2013-02-03 00:32:00,31.0,-99.9,-100.00,West,263,4.0,6.0,-999,0.00,,,-99.99,,2013-02-03 07:32:00,
2013-02-03 00:42:00,31.0,-99.9,-100.00,West,263,4.0,6.0,-999,0.00,,,-99.99,,2013-02-03 07:42:00,
2013-02-03 00:53:00,31.0,-99.9,-100.00,WSW,242,5.0,7.0,-999,0.00,,,-99.99,,2013-02-03 07:53:00,
2013-02-03 01:02:00,31.0,-99.9,-100.00,WSW,250,5.0,6.0,-999,0.00,,,-99.99,,2013-02-03 08:02:00,
2013-02-03 01:11:00,31.0,-99.9,-100.00,WSW,250,5.0,6.0,-999,0.00,,,-99.99,,2013-02-03 08:11:00,
2013-02-03 01:22:00,31.0,-99.9,-100.00,WSW,257,5.0,7.0,-999,0.00,,,-99.99,,2013-02-03 08:22:00,
2013-02-03 01:32:00,32.0,-99.9,-100.00,West,280,5.0,7.0,-999,0.00,,,-99.99,,2013-02-03 08:32:00,
2013-02-03 01:42:00,32.0,-99.9,-100.00,West,280,5.0,7.0,-999,0.00,,,-99.99,,2013-02-03 08:42:00,
2013-02-03 01:52:00,32.0,-99.9,-100.00,West,266,6.0,7.0,-999,0.00,,,-99.99,,2013-02-03 08:52:00,
2013-02-03 02:03:00,32.0,-99.9,-100.00,WSW,253,6.0,7.0,-999,0.00,,,-99.99,,2013-02-03 09:03:00,
2013-02-03 02:11:00,32.0,-99.9,-100.00,WSW,253,6.0,7.0,-999,0.00,,,-99.99,,2013-02-03 09:11:00,
2013-02-03 02:22:00,31.0,-99.9,-100.00,WSW,252,5.0,7.0,-999,0.00,,,-99.99,,2013-02-03 09:22:00,
2013-02-03 02:32:00,30.0,-99.9,-100.00,West,277,5.0,6.0,-999,0.00,,,-99.99,,2013-02-03 09:32:00,
2013-02-03 02:42:00,30.0,-99.9,-100.00,West,277,5.0,6.0,-999,0.00,,,-99.99,,2013-02-03 09:42:00,
2013-02-03 02:52:00,30.0,-99.9,-100.00,West,274,5.0,6.0,-999,0.00,,,-99.99,,2013-02-03 09:52:00,
2013-02-03 03:02:00,30.0,-99.9,-100.00,WSW,255,2.0,5.0,-999,0.00,,,-99.99,,2013-02-03 10:02:00,
2013-02-03 03:11:00,31.0,-99.9,-100.00,North,0,0.0,0.0,-999,0.00,,,-99.99,,2013-02-03 10:11:00,
2013-02-03 03:22:00,31.0,-99.9,-100.00,North,0,0.0,0.0,-999,0.00,,,-99.99,,2013-02-03 10:22:00,
2013-02-03 03:32:00,31.0,-99.9,-100.00,North,0,0.0,0.0,-999,0.00,,,-99.99,,2013-02-03 10:32:00,
2013-02-03 03:42:00,31.0,-99.9,-100.00,North,0,0.0,0.0,-999,0.00,,,-99.99,,2013-02-03 10:42:00,
2013-02-03 03:53:00,31.0,-99.9,-100.00,North,0,0.0,0.0,-999,0.00,,,-99.99,,2013-02-03 10:53:00,
2013-02-03 04:02:00,31.0,-99.9,-100.00,North,0,0.0,0.0,-999,0.00,,,-99.99,,2013-02-03 11:02:00,
2013-02-03 04:11:00,31.0,-99.9,-100.00,North,0,0.0,0.0,-999,0.00,,,-99.99,,2013-02-03 11:11:00,
2013-02-03 04:22:00,31.0,-99.9,-100.00,West,273,5.0,7.0,-999,0.00,,,-99.99,,2013-02-03 11:22:00,
2013-02-03 04:32:00,31.0,-99.9,-100.00,WSW,255,5.0,6.0,-999,0.00,,,-99.99,,2013-02-03 11:32:00,
2013-02-03 04:42:00,31.0,-99.9,-100.00,WSW,255,5.0,6.0,-999,0.00,,,-99.99,,2013-02-03 11:42:00,
2013-02-03 04:52:00,31.0,-99.9,-100.00,North,0,0.0,0.0,-999,0.00,,,-99.99,,2013-02-03 11:52:00,
2013-02-03 05:03:00,31.0,-99.9,-100.00,North,0,0.0,0.0,-999,0.00,,,-99.99,,2013-02-03 12:03:00,
2013-02-03 05:12:00,31.0,-99.9,-100.00,North,0,0.0,0.0,-999,0.00,,,-99.99,,2013-02-03 12:12:00,
2013-02-03 05:22:00,30.0,-99.9,-100.00,North,0,0.0,0.0,-999,0.00,,,-99.99,,2013-02-03 12:22:00,
2013-02-03 05:33:00,31.0,-99.9,-100.00,North,0,0.0,0.0,-999,0.00,,,-99.99,,2013-02-03 12:33:00,
2013-02-03 05:42:00,31.0,-99.9,-100.00,North,0,0.0,0.0,-999,0.00,,,-99.99,,2013-02-03 12:42:00,
2013-02-03 05:53:00,31.0,-99.9,-100.00,West,263,1.0,3.0,-999,0.00,,,-99.99,,2013-02-03 12:53:00,
2013-02-03 06:04:00,31.0,-99.9,-100.00,North,0,0.0,0.0,-999,0.00,,,-99.99,,2013-02-03 13:04:00,
2013-02-03 06:12:00,31.0,-99.9,-100.00,WSW,242,3.0,6.0,-999,0.00,,,-99.99,,2013-02-03 13:12:00,
2013-02-03 06:22:00,31.0,-99.9,-100.00,WSW,242,3.0,6.0,-999,0.00,,,-99.99,,2013-02-03 13:22:00,
2013-02-03 06:32:00,31.0,-99.9,-100.00,North,0,0.0,0.0,-999,0.00,,,-99.99,,2013-02-03 13:32:00,
2013-02-03 06:42:00,31.0,-99.9,-100.00,North,0,0.0,0.0,-999,0.00,,,-99.99,,2013-02-03 13:42:00,
2013-02-03 06:53:00,31.0,-99.9,-100.00,West,269,2.0,5.0,-999,0.00,,,-99.99,,2013-02-03 13:53:00,
2013-02-03 07:03:00,31.0,-99.9,-100.00,North,0,0.0,0.0,-999,0.00,,,-99.99,,2013-02-03 14:03:00,
2013-02-03 07:12:00,31.0,-99.9,-100.00,North,0,0.0,0.0,-999,0.00,,,-99.99,,2013-02-03 14:12:00,
2013-02-03 07:22:00,32.0,-99.9,-100.00,North,0,0.0,0.0,-999,0.00,,,-99.99,,2013-02-03 14:22:00,
2013-02-03 07:32:00,32.0,-99.9,-100.00,North,0,0.0,0.0,-999,0.00,,,-99.99,,2013-02-03 14:32:00,
2013-02-03 07:43:00,32.0,-99.9,-100.00,North,0,0.0,0.0,-999,0.00,,,-99.99,,2013-02-03 14:43:00,
2013-02-03 07:53:00,31.0,-99.9,-100.00,North,0,0.0,0.0,-999,0.00,,,-99.99,,2013-02-03 14:53:00,
2013-02-03 08:03:00,31.0,-99.9,-100.00,North,0,0.0,0.0,-999,0.00,,,-99.99,,2013-02-03 15:03:00,
2013-02-03 08:12:00,31.0,-99.9,-100.00,WSW,246,5.0,6.0,-999,0.00,,,-99.99,,2013-02-03 15:12:00,
2013-02-03 08:23:00,31.0,-99.9,-100.00,WSW,246,5.0,6.0,-999,0.00,,,-99.99,,2013-02-03 15:23:00,
2013-02-03 08:33:00,31.0,-99.9,-100.00,North,0,0.0,0.0,-999,0.00,,,-99.99,,2013-02-03 15:33:00,
2013-02-03 08:42:00,31.0,-99.9,-100.00,North,0,0.0,0.0,-999,0.00,,,-99.99,,2013-02-03 15:42:00,
2013-02-03 08:52:00,32.0,-99.9,-100.00,WSW,255,3.0,5.0,-999,0.00,,,-99.99,,2013-02-03 15:52:00,
2013-02-03 09:03:00,32.0,-99.9,-100.00,North,0,0.0,0.0,-999,0.00,,,-99.99,,2013-02-03 16:03:00,
2013-02-03 09:12:00,32.0,-99.9,-100.00,North,0,0.0,0.0,-999,0.00,,,-99.99,,2013-02-03 16:12:00,
2013-02-03 09:22:00,32.0,-99.9,-100.00,North,0,0.0,0.0,-999,0.00,,,-99.99,,2013-02-03 16:22:00,
2013-02-03 09:33:00,32.0,-99.9,-100.00,WNW,283,3.0,6.0,-999,0.00,,,-99.99,,2013-02-03 16:33:00,
2013-02-03 09:42:00,32.0,-99.9,-100.00,WNW,283,3.0,6.0,-999,0.00,,,-99.99,,2013-02-03 16:42:00,
2013-02-03 09:52:00,33.0,-99.9,-100.00,West,260,5.0,6.0,-999,0.00,,,-99.99,,2013-02-03 16:52:00,
2013-02-03 10:03:00,34.0,-99.9,-100.00,North,0,0.0,0.0,-999,0.00,,,-99.99,,2013-02-03 17:03:00,
2013-02-03 10:12:00,34.0,-99.9,-100.00,North,0,0.0,0.0,-999,0.00,,,-99.99,,2013-02-03 17:12:00,
2013-02-03 10:22:00,35.0,-99.9,-100.00,West,264,6.0,7.0,-999,0.00,,,-99.99,,2013-02-03 17:22:00,
2013-02-03 10:32:00,35.0,-99.9,-100.00,West,280,4.0,5.0,-999,0.00,,,-99.99,,2013-02-03 17:32:00,
2013-02-03 10:42:00,35.0,-99.9,-100.00,West,280,4.0,5.0,-999,0.00,,,-99.99,,2013-02-03 17:42:00,
2013-02-03 10:53:00,35.0,-99.9,-100.00,WSW,257,2.0,5.0,-999,0.00,,,-99.99,,2013-02-03 17:53:00,
2013-02-03 11:03:00,36.0,-99.9,-100.00,North,0,0.0,0.0,-999,0.00,,,-99.99,,2013-02-03 18:03:00,
2013-02-03 11:12:00,36.0,-99.9,-100.00,North,0,0.0,0.0,-999,0.00,,,-99.99,,2013-02-03 18:12:00,
2013-02-03 11:23:00,37.0,-99.9,-100.00,North,0,0.0,0.0,-999,0.00,,,-99.99,,2013-02-03 18:23:00,
2013-02-03 11:33:00,37.0,-99.9,-100.00,North,0,0.0,0.0,-999,0.00,,,-99.99,,2013-02-03 18:33:00,
2013-02-03 11:42:00,37.0,-99.9,-100.00,North,0,0.0,0.0,-999,0.00,,,-99.99,,2013-02-03 18:42:00,
2013-02-03 11:52:00,38.0,-99.9,-100.00,West,259,2.0,5.0,-999,0.00,,,-99.99,,2013-02-03 18:52:00,
2013-02-03 12:03:00,38.0,-99.9,-100.00,North,0,0.0,0.0,-999,0.00,,,-99.99,,2013-02-03 19:03:00,
2013-02-03 12:11:00,38.0,-99.9,-100.00,North,0,0.0,0.0,-999,0.00,,,-99.99,,2013-02-03 19:11:00,
2013-02-03 12:22:00,38.0,-99.9,-100.00,West,274,2.0,5.0,-999,0.00,,,-99.99,,2013-02-03 19:22:00,
2013-02-03 12:33:00,39.0,-99.9,-100.00,West,270,5.0,6.0,-999,0.00,,,-99.99,,2013-02-03 19:33:00,
2013-02-03 12:42:00,39.0,-99.9,-100.00,West,270,5.0,6.0,-999,0.00,,,-99.99,,2013-02-03 19:42:00,
2013-02-03 12:52:00,40.0,-99.9,-100.00,North,0,0.0,0.0,-999,0.00,,,-99.99,,2013-02-03 19:52:00,
2013-02-03 13:02:00,41.0,-99.9,-100.00,North,0,0.0,0.0,-999,0.00,,,-99.99,,2013-02-03 20:02:00,
2013-02-03 13:12:00,41.0,-99.9,-100.00,North,0,0.0,0.0,-999,0.00,,,-99.99,,2013-02-03 20:12:00,
2013-02-03 13:22:00,41.0,-99.9,-100.00,North,0,0.0,0.0,-999,0.00,,,-99.99,,2013-02-03 20:22:00,
2013-02-03 13:33:00,40.0,-99.9,-100.00,North,0,0.0,0.0,-999,0.00,,,-99.99,,2013-02-03 20:33:00,
2013-02-03 13:42:00,40.0,-99.9,-100.00,North,0,0.0,0.0,-999,0.00,,,-99.99,,2013-02-03 20:42:00,
2013-02-03 13:52:00,40.0,-99.9,-100.00,North,0,0.0,0.0,-999,0.00,,,-99.99,,2013-02-03 20:52:00,
2013-02-03 14:04:00,39.0,-99.9,-100.00,West,271,1.0,7.0,-999,0.00,,,-99.99,,2013-02-03 21:04:00,
2013-02-03 14:11:00,39.0,-99.9,-100.00,West,271,1.0,7.0,-999,0.00,,,-99.99,,2013-02-03 21:11:00,
2013-02-03 14:22:00,39.0,-99.9,-100.00,North,6,2.0,8.0,-999,0.00,,,-99.99,,2013-02-03 21:22:00,
2013-02-03 14:33:00,39.0,-99.9,-100.00,NNW,336,2.0,9.0,-999,0.00,,,-99.99,,2013-02-03 21:33:00,
2013-02-03 14:43:00,39.0,-99.9,-100.00,NNW,336,2.0,9.0,-999,0.00,,,-99.99,,2013-02-03 21:43:00,
2013-02-03 14:52:00,38.0,-99.9,-100.00,NW,321,4.0,9.0,-999,0.00,,,-99.99,,2013-02-03 21:52:00,
2013-02-03 15:02:00,37.0,-99.9,-100.00,NW,309,5.0,10.0,-999,0.00,,,-99.99,,2013-02-03 22:02:00,
2013-02-03 15:11:00,37.0,-99.9,-100.00,NW,309,5.0,10.0,-999,0.00,,,-99.99,,2013-02-03 22:11:00,
2013-02-03 15:22:00,37.0,-99.9,-100.00,NNW,335,4.0,10.0,-999,0.00,,,-99.99,,2013-02-03 22:22:00,
2013-02-03 15:32:00,37.0,-99.9,-100.00,NW,305,3.0,8.0,-999,0.00,,,-99.99,,2013-02-03 22:32:00,
2013-02-03 15:42:00,37.0,-99.9,-100.00,NW,305,3.0,8.0,-999,0.00,,,-99.99,,2013-02-03 22:42:00,
2013-02-03 15:52:00,37.0,-99.9,-100.00,NNW,330,4.0,9.0,-999,0.00,,,-99.99,,2013-02-03 22:52:00,
2013-02-03 16:02:00,37.0,-99.9,-100.00,NNW,333,5.0,11.0,-999,0.00,,,-99.99,,2013-02-03 23:02:00,
2013-02-03 16:12:00,37.0,-99.9,-100.00,NNW,333,5.0,11.0,-999,0.00,,,-99.99,,2013-02-03 23:12:00,
2013-02-03 16:22:00,36.0,-99.9,-100.00,NW,319,3.0,10.0,-999,0.00,,,-99.99,,2013-02-03 23:22:00,
2013-02-03 16:33:00,36.0,-99.9,-100.00,NNW,336,4.0,12.0,-999,0.00,,,-99.99,,2013-02-03 23:33:00,
2013-02-03 16:42:00,36.0,-99.9,-100.00,NNW,336,4.0,12.0,-999,0.00,,,-99.99,,2013-02-03 23:42:00,
2013-02-03 16:52:00,36.0,-99.9,-100.00,NNW,336,4.0,12.0,-999,0.00,,,-99.99,,2013-02-03 23:52:00,
2013-02-03 17:02:00,35.0,-99.9,-100.00,NNW,330,6.0,12.0,-999,0.00,,,-99.99,,2013-02-04 00:02:00,
2013-02-03 17:11:00,35.0,-99.9,-100.00,NNW,330,6.0,12.0,-999,0.00,,,-99.99,,2013-02-04 00:11:00,
2013-02-03 17:22:00,35.0,-99.9,-100.00,NW,323,8.0,12.0,-999,0.00,,,-99.99,,2013-02-04 00:22:00,
2013-02-03 17:32:00,34.0,-99.9,-100.00,NNW,340,8.0,10.0,-999,0.00,,,-99.99,,2013-02-04 00:32:00,
2013-02-03 17:42:00,34.0,-99.9,-100.00,NNW,340,8.0,10.0,-999,0.00,,,-99.99,,2013-02-04 00:42:00,
2013-02-03 17:52:00,34.0,-99.9,-100.00,NNW,329,8.0,10.0,-999,0.00,,,-99.99,,2013-02-04 00:52:00,
2013-02-03 18:01:00,33.0,-99.9,-100.00,NNW,343,7.0,9.0,-999,0.00,,,-99.99,,2013-02-04 01:01:00,
2013-02-03 18:11:00,32.0,-99.9,-100.00,NNW,329,6.0,9.0,-999,0.00,,,-99.99,,2013-02-04 01:11:00,
2013-02-03 18:22:00,32.0,-99.9,-100.00,NNW,329,6.0,9.0,-999,0.00,,,-99.99,,2013-02-04 01:22:00,
2013-02-03 18:32:00,32.0,-99.9,-100.00,North,359,7.0,9.0,-999,0.00,,,-99.99,,2013-02-04 01:32:00,
2013-02-03 18:42:00,32.0,-99.9,-100.00,North,359,7.0,9.0,-999,0.00,,,-99.99,,2013-02-04 01:42:00,
2013-02-03 18:52:00,31.0,-99.9,-100.00,NNW,336,7.0,9.0,-999,0.00,,,-99.99,,2013-02-04 01:52:00,
2013-02-03 19:02:00,31.0,-99.9,-100.00,NW,315,7.0,9.0,-999,0.00,,,-99.99,,2013-02-04 02:02:00,
2013-02-03 19:11:00,31.0,-99.9,-100.00,NW,315,7.0,9.0,-999,0.00,,,-99.99,,2013-02-04 02:11:00,
2013-02-03 19:22:00,31.0,-99.9,-100.00,NNW,335,7.0,10.0,-999,0.00,,,-99.99,,2013-02-04 02:22:00,
2013-02-03 19:32:00,31.0,-99.9,-100.00,North,352,8.0,10.0,-999,0.00,,,-99.99,,2013-02-04 02:32:00,
2013-02-03 19:42:00,31.0,-99.9,-100.00,North,352,8.0,10.0,-999,0.00,,,-99.99,,2013-02-04 02:42:00,
2013-02-03 19:52:00,31.0,-99.9,-100.00,NNW,336,7.0,10.0,-999,0.00,,,-99.99,,2013-02-04 02:52:00,
2013-02-03 20:02:00,31.0,-99.9,-100.00,NNW,330,7.0,9.0,-999,0.00,,,-99.99,,2013-02-04 03:02:00,
2013-02-03 20:11:00,31.0,-99.9,-100.00,NNW,343,6.0,8.0,-999,0.00,,,-99.99,,2013-02-04 03:11:00,
2013-02-03 20:22:00,31.0,-99.9,-100.00,NNW,343,6.0,8.0,-999,0.00,,,-99.99,,2013-02-04 03:22:00,
2013-02-03 20:32:00,31.0,-99.9,-100.00,North,352,5.0,7.0,-999,0.00,,,-99.99,,2013-02-04 03:32:00,
2013-02-03 20:42:00,31.0,-99.9,-100.00,North,352,5.0,7.0,-999,0.00,,,-99.99,,2013-02-04 03:42:00,
2013-02-03 20:52:00,27.0,-99.9,-100.00,North,0,0.0,0.0,-999,0.00,,,-99.99,,2013-02-04 03:52:00,
2013-02-03 21:02:00,27.0,-99.9,-100.00,North,0,0.0,0.0,-999,0.00,,,-99.99,,2013-02-04 04:02:00,
2013-02-03 21:11:00,27.0,-99.9,-100.00,North,0,0.0,0.0,-999,0.00,,,-99.99,,2013-02-04 04:11:00,
2013-02-03 21:22:00,27.0,-99.9,-100.00,North,0,0.0,0.0,-999,0.00,,,-99.99,,2013-02-04 04:22:00,
2013-02-03 21:32:00,25.0,-99.9,-100.00,North,0,0.0,0.0,-999,0.00,,,-99.99,,2013-02-04 04:32:00,
2013-02-03 21:42:00,25.0,-99.9,-100.00,North,0,0.0,0.0,-999,0.00,,,-99.99,,2013-02-04 04:42:00,
2013-02-03 21:52:00,22.0,-99.9,-100.00,North,0,0.0,0.0,-999,0.00,,,-99.99,,2013-02-04 04:52:00,
2013-02-03 22:03:00,22.0,-99.9,-100.00,North,0,0.0,0.0,-999,0.00,,,-99.99,,2013-02-04 05:03:00,
2013-02-03 22:12:00,22.0,-99.9,-100.00,North,0,0.0,0.0,-999,0.00,,,-99.99,,2013-02-04 05:12:00,
2013-02-03 22:22:00,22.0,-99.9,-100.00,North,0,0.0,0.0,-999,0.00,,,-99.99,,2013-02-04 05:22:00,
2013-02-03 22:33:00,22.0,-99.9,-100.00,North,0,0.0,0.0,-999,0.00,,,-99.99,,2013-02-04 05:33:00,
2013-02-03 22:42:00,22.0,-99.9,-100.00,North,0,0.0,0.0,-999,0.00,,,-99.99,,2013-02-04 05:42:00,
2013-02-03 22:52:00,21.0,-99.9,-100.00,North,0,0.0,0.0,-999,0.00,,,-99.99,,2013-02-04 05:52:00,
2013-02-03 23:02:00,22.0,-99.9,-100.00,North,0,0.0,0.0,-999,0.00,,,-99.99,,2013-02-04 06:02:00,
2013-02-03 23:11:00,22.0,-99.9,-100.00,North,0,0.0,0.0,-999,0.00,,,-99.99,,2013-02-04 06:11:00,
2013-02-03 23:22:00,23.0,-99.9,-100.00,North,0,0.0,0.0,-999,0.00,,,-99.99,,2013-02-04 06:22:00,
2013-02-03 23:32:00,24.0,-99.9,-100.00,North,0,0.0,0.0,-999,0.00,,,-99.99,,2013-02-04 06:32:00,
2013-02-03 23:42:00,24.0,-99.9,-100.00,North,0,0.0,0.0,-999,0.00,,,-99.99,,2013-02-04 06:42:00,
2013-02-03 23:52:00,23.0,-99.9,-100.00,North,0,0.0,0.0,-999,0.00,,,-99.99,,2013-02-04 06:52:00,